Regional Weather Roundup
Issued by NWS Northern Indiana

Home | Current Version | Previous Version | Text Only | Print | Product List | Glossary Off
Versions: 1 2 3 4 5 6 7 8 9 10 11 12 13 14 15 16 17 18 19 20 21 22 23 24 25 26 27 28 29 30 31 32 33 34 35 36 37 38 39 40 41 42 43 44 45 46 47 48 49 50

000
ASUS43 KIWX 031510
RWRIWX

KIWX WEATHER ROUNDUP
NATIONAL WEATHER SERVICE NORTHERN INDIANA
1100 AM EDT SUN MAY 03 2015

NOTE: "FAIR" INDICATES FEW OR NO CLOUDS BELOW 12,000 FEET WITH NO
SIGNIFICANT WEATHER AND/OR OBSTRUCTIONS TO VISIBILITY.

* THESE STATIONS ARE NOT UNDER NWS QUALITY CONTROL. THEY ALSO MAY NOT
  REPORT WEATHER SUCH AS PRECIPITATION OR FOG.

INZ001>027-031600-
NORTHERN INDIANA

CITY           SKY/WX    TMP DP  RH WIND       PRES   REMARKS
GARY*          PTSUNNY   73 N/A N/A S15       30.00S
VALPARAISO     MOSUNNY   73  44  35 S15G24    30.02S
MICHIGAN CITY* MOSUNNY   72  36  26 S12       30.02R
LAPORTE*       MOSUNNY   73  45  37 SW13G20   30.02F
KNOX*          PTSUNNY   72  14  11 SW12      30.02F
SOUTH BEND     PTSUNNY   72  42  34 SW12      30.03F
GOSHEN         SUNNY     71  48  43 SW13      30.05S
MONTICELLO*    CLOUDY    69  51  51 SW10G16   30.04S
LOGANSPORT*    SUNNY     70  43  37 SW13      30.07S
ROCHESTER*     MOSUNNY   73  46  38 S10       30.06F
WARSAW*        SUNNY     70  46  43 SW6       30.06S
ANGOLA*        SUNNY     72  64  78 SW12      30.05F
FORT WAYNE     MOSUNNY   71  47  42 SW12      30.08F
HUNTINGTON*    SUNNY     70  45  41 W9G16     30.07S
PERU/GRISSOM   SUNNY     70  50  49 S13       30.06S
MARION*        CLOUDY    68  46  44 SW10      30.10R

$$
INZ028>050-031600-
CENTRAL INDIANA

CITY           SKY/WX    TMP DP  RH WIND       PRES   REMARKS
LAFAYETTE      MOSUNNY   70  47  43 SW12      30.05S
MUNCIE*        CLOUDY    70  47  43 W12       30.09F
INDIANAPOLIS   PTSUNNY   66  49  54 SW10      30.08S

$$
MIZ043>046-050>051-056>058-064>065-071>073-077>080-031600-
SOUTHWEST LOWER MICHIGAN

CITY           SKY/WX    TMP DP  RH WIND       PRES   REMARKS
BATTLE CREEK   SUNNY     71  45  39 SW12      30.04F
BENTON HARBOR  CLOUDY    70  47  43 S8        30.00F
COLDWATER*     SUNNY     70  42  35 S8G16     30.05S
HILLSDALE*     SUNNY     73  40  30 SW8       30.06F
HOLLAND        MOSUNNY   70  46  42 SW12      30.01S
GRAND RAPIDS   MOSUNNY   72  44  36 S12       30.01S
KALAMAZOO      SUNNY     73  46  38 S10G18    30.03F
STURGIS*       SUNNY     70  46  43 SW13      30.05R
THREE RIVERS*  FAIR      71  45  39 SW12      30.04S

$$
OHZ001>008-015>018-024>025-031600-
NORTHWEST OHIO

CITY           SKY/WX    TMP DP  RH WIND       PRES   REMARKS
WAUSEON*       FAIR      72  43  35 SW13      30.08S
DEFIANCE       SUNNY     72  45  37 SW13      30.08F
FINDLAY        SUNNY     72  46  39 SW9       30.09S
TOLEDO EXPRESS SUNNY     71  43  36 W12       30.08S
TOLEDO METCALF SUNNY     71  43  36 W10       30.09S
LIMA           SUNNY     69  47  45 SW9       30.10F

$$
AND FOR LAKE MICHIGAN COASTAL AND OPEN LAKE BUOY OBSERVATIONS

STATION/POSITION TEMP    WIND        PRES    VSBY  WAVE
                 AIR SEA DIR/SP/G                  HT/PER
                 (F)     (DEG/KT/KT) (MB)    (MI)  (FT/S)
CALUMET HARBOR    69     200/  9/ 12   N/A
MICHIGAN CITY     68     160/ 11/ 14   N/A
BURNS HARBOR      69     190/ 14/ 21 1016.3S
SAINT JOSEPH      66     180/  6/ 14 1016.6S
4 MI NW BRIDGMAN  58 49  210/  8/  8   N/A           1
MICHIGAN CITY     60 50  210/  8/ 10   N/A           1

$$
&&


USA.gov is the U.S. government's official web portal to all federal, state and local government web resources and services.